This demonstration page uses our WeatherBlox Daily Observations layout. Learn more.

Left ArrowRight Arrow

41.55636, -103.73856

Hourly Observations for April 21, 2020

Temp ( °F °C ) Dew Point ( °F °C ) Humidity (%) Winds ( mph kmh ) Pressure ( in mb ) Visibility ( mi km ) Precip ( " mm )
6:58 pm 18:58 Clear 58 14.7 24 -4.4 27 27 N 6 9 29.97 1015 10 16 0.00 0.00
7:58 pm 19:58 Clear 50 10.2 24 -4.5 36 36 ENE 9 15 29.99 1016 10 16 0.00 0.00
8:58 pm 20:58 Clear 48 9.1 24 -4.2 39 39 ESE 9 15 29.99 1016 10 16 0.00 0.00
9:58 pm 21:58 Clear 48 8.8 24 -4.5 39 39 E 8 13 30.00 1016 10 16 0.00 0.00
10:58 pm 22:58 Clear 42 5.4 26 -3.1 55 55 SSW 5 7 30.02 1017 10 16 0.00 0.00
11:58 pm 23:58 Clear 39 3.8 27 -2.8 62 62 S 5 7 30.02 1017 10 16 0.00 0.00
12:58 am 00:58 Clear 36 2 27 -2.9 70 70 SSW 5 7 30.03 1017 10 16 0.00 0.00
1:58 am 01:58 Clear 39 3.9 26 -3.3 60 60 SSW 7 11 30.01 1016 10 16 0.00 0.00
2:58 am 02:58 Clear 40 4.2 26 -3.1 59 59 SSW 9 15 30.00 1016 10 16 0.00 0.00
3:58 am 03:58 Clear 39 3.9 26 -3.6 58 58 WSW 5 7 30.00 1016 10 16 0.00 0.00
4:58 am 04:58 Clear 37 2.6 26 -3.6 64 64 SW 9 15 30.00 1016 10 16 0.00 0.00
5:58 am 05:58 Clear 40 4.5 25 -3.8 55 55 W 5 7 29.99 1016 10 16 0.00 0.00
6:58 am 06:58 Sunny 40 4.7 27 -3 58 58 Calm 30.00 1016 10 16 0.00 0.00
7:58 am 07:58 Sunny 47 8.5 28 -2.4 47 47 Calm 30.00 1016 10 16 0.00 0.00
8:58 am 08:58 Sunny 54 12.3 28 -2 37 37 SW 15 24 29.98 1015 10 16 0.00 0.00
9:58 am 09:58 Sunny 59 14.8 29 -1.6 33 33 SW 14 22 29.95 1014 10 16 0.00 0.00
10:58 am 10:58 Sunny 66 18.7 30 -1.1 26 26 SSW 15 24 29.93 1014 10 16 0.00 0.00
11:58 am 11:58 Partly Cloudy 69 20.4 24 -4.7 18 18 WSW 17 28 29.91 1013 10 16 0.00 0.00
12:58 pm 12:58 Mostly Cloudy 68 20.2 21 -6 17 17 SW 13 20 29.90 1012 10 16 0.00 0.00
1:58 pm 13:58 Mostly Sunny 69 20.5 22 -5.7 17 17 NW 5 7 29.87 1011 10 16 0.00 0.00
2:58 pm 14:58 Partly Cloudy 71 21.5 21 -5.9 15 15 Calm 29.84 1010 10 16 0.00 0.00
3:58 pm 15:58 Partly Cloudy 70 21.2 21 -6.2 15 15 W 8 13 29.83 1010 10 16 0.00 0.00
4:58 pm 16:58 Sunny 69 20.5 21 -6.1 16 16 NE 5 7 29.82 1010 10 16 0.00 0.00
5:58 pm 17:58 Mostly Sunny 70 20.9 20 -6.9 15 15 E 5 7 29.80 1009 10 16 0.00 0.00

Powered by AerisWeather